RH
10 10 10 9 9 10 10 10 11 12 12 12 12 12 12 12 11 11 11 11 10 10 12 13 12 12 12 12 13 13 13 13 13 13 13 13 13 14 15 15 14 14 14 15 15 16 16 16 16 16 17 18 18 19 19 19 20 21 27 26 22 25 26 24 24 24 24 24 23 23 23 24 25 26 26 26 27 27 28 27 26 25 25 24 24 23 23 24
10 9 9 9 9 9 9 9 10 10 11 11 11 11 12 12 11 11 11 11 10 10 10 12 12 12 12 12 12 12 13 14 14 13 13 13 13 14 15 15 14 14 14 14 15 16 16 16 15 15 17 18 19 19 19 19 18 22 28 25 22 27 25 22 23 22 22 21 22 23 22 23 23 24 25 25 26 26 26 26 25 25 25 24 24 24 23 23
9 9 8 8 8 8 8 8 9 9 9 10 10 10 11 11 11 11 11 11 11 10 10 10 11 12 12 12 11 11 12 13 13 14 13 13 13 14 14 14 14 13 14 13 14 14 15 15 15 15 16 17 18 18 18 19 19 20 23 23 24 28 24 21 22 21 21 20 22 22 22 22 22 23 23 23 24 25 25 24 24 24 23 23 24 23 23 23
9 8 8 8 8 8 7 8 8 8 8 8 9 9 9 10 10 10 10 11 10 11 10 9 10 11 11 11 11 11 11 12 13 13 13 13 14 14 14 14 14 13 13 13 13 13 14 14 13 14 15 16 17 18 18 18 19 19 21 22 23 25 23 21 21 21 21 21 21 21 22 22 22 23 23 23 23 25 25 22 22 22 21 22 23 23 23 22
10 9 8 8 7 7 7 7 7 7 7 8 8 8 8 8 9 9 9 10 10 10 10 10 9 10 11 11 11 11 11 13 13 12 12 13 13 14 14 14 14 13 13 13 13 13 13 13 12 13 14 15 17 17 17 17 17 18 19 20 21 22 21 20 20 21 21 22 22 22 22 22 22 23 22 23 23 23 22 21 21 21 21 22 22 22 23 22
11 10 9 8 8 7 7 7 7 7 7 7 7 7 7 8 7 8 8 8 9 9 10 10 9 9 10 11 12 11 11 12 12 11 11 12 12 13 13 14 14 14 13 13 13 13 13 13 12 12 14 16 17 17 16 16 16 17 17 18 19 20 19 19 20 20 21 22 22 23 23 22 23 23 23 23 22 21 21 21 20 21 21 22 22 23 23 22
11 11 10 9 9 8 7 7 7 7 7 7 7 7 7 7 7 7 7 7 8 8 9 9 10 10 10 11 11 12 12 11 11 11 11 11 12 12 13 13 14 14 13 13 13 13 13 13 12 12 13 15 16 16 16 16 16 17 17 17 17 18 17 18 19 20 20 21 21 22 22 22 22 23 23 22 21 20 20 21 21 20 21 22 23 23 23 22
11 11 11 10 10 9 8 8 7 8 7 7 7 7 7 7 7 7 6 7 7 7 8 9 10 10 10 11 11 12 12 11 11 11 11 11 11 12 12 12 13 13 13 13 13 14 14 14 13 12 12 13 14 15 15 14 15 17 17 17 16 16 16 17 17 18 19 20 20 21 21 21 21 21 21 20 19 19 19 19 20 20 20 21 22 23 24 24
11 11 11 11 11 10 9 9 8 8 8 8 7 7 6 6 6 6 6 6 6 7 8 8 9 10 10 10 11 12 11 11 11 11 10 10 11 11 11 12 12 13 13 13 13 13 15 15 14 13 13 13 13 13 14 13 14 16 16 16 16 15 16 16 16 16 17 18 19 19 20 20 19 19 18 17 16 17 18 18 18 19 19 20 21 23 24 24
11 11 11 11 11 11 10 10 9 9 8 8 8 7 7 6 6 6 6 6 6 7 7 8 9 9 10 10 11 11 10 10 11 11 11 10 10 11 11 11 11 12 12 12 12 13 14 15 15 15 13 13 13 12 12 12 13 15 16 16 16 15 16 16 15 16 17 17 17 17 18 18 18 17 16 15 14 14 15 16 17 18 18 19 20 21 23 23
11 11 11 11 11 11 11 10 10 9 9 9 9 8 7 7 6 6 6 6 7 7 7 8 8 10 10 11 12 11 9 9 10 11 11 11 11 10 11 11 11 11 11 11 12 12 13 15 15 15 15 14 13 12 12 12 13 14 14 14 15 15 15 15 16 16 17 17 16 16 16 17 17 17 15 13 13 13 14 14 15 16 17 18 19 20 21 22
12 11 11 11 11 11 11 11 11 10 10 10 10 9 9 8 7 7 7 6 7 7 7 8 9 10 10 11 11 10 9 10 10 11 12 12 12 11 11 11 11 11 11 11 11 12 13 14 15 15 16 15 14 13 13 14 13 13 13 13 15 17 16 15 16 16 16 17 16 16 16 15 16 16 14 13 13 13 13 13 13 14 15 16 17 18 19 21
12 12 12 11 11 12 12 12 11 11 11 11 11 11 10 10 9 8 7 7 7 7 7 8 9 10 11 11 10 10 10 11 11 11 12 13 12 11 11 11 11 11 11 11 11 12 12 13 14 15 16 16 16 14 13 14 13 13 13 13 15 17 16 14 15 16 15 16 15 16 17 14 14 15 14 14 13 13 13 13 13 13 13 14 15 16 18 20
14 13 13 12 12 12 12 12 12 12 12 12 12 12 12 11 11 10 8 8 7 7 8 8 10 10 11 11 10 10 11 11 12 13 13 13 12 12 12 12 12 12 12 11 12 12 12 13 14 15 16 16 17 15 16 17 16 15 14 17 20 16 17 17 15 15 14 15 15 15 17 14 13 14 14 14 14 14 14 14 14 14 14 13 14 15 17 19
16 15 14 13 13 12 12 13 13 13 13 13 12 13 13 12 12 11 10 9 8 9 8 9 9 10 11 11 10 11 11 12 13 13 13 13 13 12 12 12 12 12 12 12 12 12 13 14 14 15 16 16 18 19 20 20 21 21 14 18 23 17 19 20 15 16 14 15 15 15 18 14 12 13 13 13 14 15 15 15 15 15 15 14 13 15 16 18
17 17 16 16 15 14 14 14 13 13 13 13 13 13 13 12 13 12 12 11 10 10 9 10 10 11 12 12 11 11 12 13 13 13 13 13 13 13 12 12 13 13 13 13 13 13 13 14 14 15 15 16 21 24 23 21 22 26 18 16 22 18 18 18 15 16 15 15 15 15 17 14 12 13 12 13 13 14 15 15 15 15 15 15 15 15 16 18
17 17 17 17 17 16 16 15 14 14 14 13 13 13 13 13 12 12 12 12 11 11 11 12 13 13 13 12 12 12 13 13 13 13 13 13 13 13 13 13 13 13 13 13 13 13 13 14 14 15 17 19 25 25 21 20 21 25 22 18 21 19 16 16 15 16 15 16 16 16 17 13 11 11 11 12 12 13 14 14 15 15 15 16 16 16 17 18
18 18 18 18 17 17 17 16 16 16 15 14 14 13 13 13 13 13 13 12 12 13 13 14 15 15 13 12 13 13 13 13 13 14 13 14 14 13 13 13 14 14 14 13 13 14 14 14 16 18 21 20 22 23 20 21 21 21 20 19 20 19 16 16 16 16 15 16 16 17 18 14 11 11 10 11 11 12 12 13 13 14 15 17 18 18 19 18
18 18 18 18 18 18 18 17 17 17 16 16 15 14 14 13 13 13 13 13 14 14 14 15 15 14 13 12 13 13 13 13 14 14 14 14 14 14 14 14 15 14 14 15 15 16 15 15 17 19 20 19 20 22 21 24 24 21 22 21 20 18 17 17 16 16 16 15 16 15 15 15 13 11 10 10 11 11 11 12 13 14 16 17 18 19 20 19
19 18 18 19 19 18 18 18 18 17 17 17 16 16 15 14 14 15 14 14 14 14 14 15 15 15 14 13 13 13 14 14 15 15 15 15 15 15 15 15 16 15 16 19 19 17 16 17 19 18 19 21 23 23 23 27 25 22 22 21 20 19 18 17 16 18 17 16 16 15 16 16 13 11 11 10 11 11 12 13 14 14 15 17 18 20 20 20
24 20 18 19 19 19 19 19 18 18 17 17 17 17 16 16 17 17 15 14 14 14 14 14 14 14 13 14 14 14 15 16 16 16 16 16 16 16 16 16 17 18 21 22 20 18 18 19 19 20 21 22 26 27 25 25 24 22 22 21 22 22 20 17 17 19 19 17 18 18 18 16 14 12 11 11 12 11 12 13 13 14 15 17 18 20 20 20
29 26 22 19 18 19 20 19 20 19 18 18 17 17 17 17 18 18 17 17 16 15 15 14 14 14 13 13 14 14 16 17 16 17 16 16 17 17 16 18 19 21 23 22 20 20 21 20 20 22 24 24 26 27 25 25 25 25 26 24 23 23 21 19 20 22 20 19 19 20 20 15 14 13 12 12 12 12 12 12 13 14 15 17 18 20 20 21
30 30 28 23 19 18 20 20 20 20 20 19 18 18 18 18 19 19 20 21 19 16 15 15 15 14 14 14 14 15 17 18 17 16 17 17 18 18 17 19 22 23 23 22 22 22 23 23 24 25 25 24 25 26 27 27 27 28 28 27 25 23 21 19 21 22 22 21 21 22 21 15 13 13 13 13 13 14 14 13 14 14 15 17 18 19 20 21
26 28 31 30 26 21 19 20 20 21 20 20 19 18 18 19 20 20 21 22 21 17 16 17 17 16 16 16 16 17 18 18 17 17 18 18 19 19 18 20 23 24 23 25 25 24 24 25 26 26 24 25 26 26 26 25 27 31 31 27 25 23 21 21 23 23 23 24 24 22 18 14 16 16 15 16 16 17 17 15 16 16 16 17 19 20 21 20
24 22 25 29 31 29 24 21 21 22 22 22 21 20 20 21 21 22 21 20 21 20 17 17 18 17 17 18 18 19 19 19 18 19 19 20 20 20 20 21 22 23 26 28 28 26 25 24 25 24 24 26 27 27 28 28 29 34 32 27 25 23 21 22 24 24 26 27 25 23 18 16 20 20 18 20 20 19 19 18 18 17 18 18 19 20 20 19
32 25 22 22 26 30 29 27 25 23 23 23 23 22 21 21 23 23 21 20 21 20 18 17 18 19 19 20 21 20 21 21 20 21 22 22 22 21 22 23 23 26 29 30 29 28 27 26 27 27 26 26 26 28 31 31 30 31 31 29 27 24 23 23 23 23 28 30 27 26 25 23 22 20 20 22 21 19 19 20 19 19 19 20 20 20 20 17
43 37 30 23 21 23 27 29 30 27 23 23 23 23 22 21 22 21 17 18 18 18 19 19 19 19 19 21 22 20 22 23 21 22 23 23 23 22 24 26 25 27 29 28 27 27 27 28 29 28 28 29 27 27 31 31 31 31 32 33 30 26 25 25 23 23 28 31 32 28 26 30 30 23 20 20 20 20 19 21 22 21 21 21 21 19 17 16
53 48 41 34 25 21 21 25 30 32 29 26 22 20 21 21 20 18 17 16 17 19 22 22 20 19 20 21 20 19 20 21 20 21 22 22 23 22 24 27 28 28 28 27 28 28 28 29 29 29 29 29 28 30 34 31 29 31 34 35 32 28 28 27 25 26 28 33 35 29 26 31 31 26 24 22 21 22 22 23 23 22 22 20 18 16 15 15
65 59 52 46 38 31 25 23 26 31 33 31 27 22 20 21 20 20 20 19 18 21 22 23 22 22 22 22 21 20 20 20 19 20 21 21 21 21 23 25 26 27 26 27 28 27 28 28 29 29 28 28 31 35 36 31 28 31 35 35 34 33 32 30 28 27 31 36 34 27 27 31 27 23 25 24 23 24 23 24 23 20 20 18 16 15 16 16
72 68 64 60 55 48 41 36 34 33 33 32 31 29 24 21 20 20 24 21 17 20 23 24 24 24 24 24 24 23 23 22 21 20 21 21 21 20 22 23 24 26 28 29 28 27 27 27 27 28 26 28 33 35 35 35 33 33 34 33 33 34 32 32 34 31 33 37 31 24 27 31 30 26 24 23 24 25 23 22 21 19 18 16 15 16 17 18
68 67 67 66 65 62 57 54 49 44 40 34 31 32 30 28 25 23 23 18 15 19 22 24 25 25 26 27 27 27 26 26 24 23 23 23 22 22 23 23 24 29 32 28 28 28 26 26 27 27 26 28 32 33 33 36 35 35 35 32 31 32 31 34 38 35 36 35 29 30 34 34 33 27 23 24 26 25 22 19 19 19 18 15 16 17 19 20
65 64 64 63 62 62 62 62 60 55 50 43 36 32 32 34 31 26 22 15 13 18 21 24 26 26 29 28 28 29 29 28 25 23 25 25 25 24 24 24 26 28 30 28 28 29 27 27 28 27 27 29 32 34 35 35 35 35 36 36 35 34 34 38 38 38 41 36 31 36 38 35 30 23 22 25 25 24 22 19 19 19 17 15 16 19 21 22
65 64 64 62 58 56 56 58 60 60 56 51 45 39 36 36 29 25 26 19 16 21 23 26 29 29 30 28 28 29 28 28 26 23 24 26 25 25 24 27 28 25 26 29 29 29 28 28 30 30 31 32 33 34 35 36 36 35 35 37 36 38 43 46 43 41 40 36 34 39 39 34 27 21 23 24 21 20 20 19 19 18 17 17 18 21 22 23
61 62 62 61 58 52 46 46 52 54 53 51 50 49 47 40 30 27 29 25 25 29 28 29 30 28 27 27 29 29 24 25 26 23 23 24 24 25 24 25 27 27 29 32 31 33 32 29 31 34 35 34 33 33 35 38 39 37 38 37 35 40 44 43 43 41 39 40 40 40 40 34 24 21 25 24 20 19 19 18 18 18 19 20 21 23 23 24
56 57 57 58 58 52 42 40 45 48 48 47 48 53 49 39 34 33 30 28 33 36 34 33 32 28 27 28 30 28 22 22 25 24 24 25 24 25 23 23 26 31 35 38 39 41 39 34 35 39 38 37 37 38 41 41 40 42 44 42 39 41 38 38 46 46 47 52 46 40 38 30 23 23 26 25 22 19 19 19 20 21 22 24 25 24 24 26
63 60 58 57 57 54 47 43 45 45 46 46 50 50 40 31 37 39 33 31 34 37 37 35 32 29 28 29 29 28 23 23 26 26 26 26 25 26 26 25 29 33 36 40 44 46 43 40 41 41 41 41 41 43 44 42 42 45 47 44 44 45 42 45 51 50 53 54 43 38 36 26 21 23 22 21 20 19 21 21 22 23 25 26 26 24 25 28
80 75 71 68 64 61 56 53 53 50 45 46 48 43 32 28 34 36 34 34 35 39 39 33 30 30 28 27 28 30 27 26 27 27 29 31 28 28 30 31 33 36 36 38 43 43 40 38 40 41 40 41 42 41 42 41 42 46 46 43 44 46 46 50 51 52 56 54 43 37 32 23 22 23 20 19 20 20 21 22 23 25 27 28 26 25 27 29
89 87 82 79 78 75 70 67 67 61 52 48 46 42 36 31 29 29 32 34 36 39 38 33 30 31 30 28 29 32 30 28 30 33 35 36 32 29 32 34 35 36 34 33 37 38 35 33 38 42 42 40 41 40 41 41 40 42 43 40 41 43 46 48 48 47 48 50 47 37 27 22 21 20 17 18 20 21 21 23 26 27 29 28 27 27 28 30
91 89 82 78 83 85 80 80 80 74 64 56 50 47 43 39 34 32 31 33 36 38 38 35 31 31 33 32 33 36 34 33 37 39 37 36 33 30 30 31 32 32 30 29 31 33 33 32 35 42 44 42 41 41 41 40 38 39 38 38 38 40 42 43 44 44 41 42 42 35 26 22 18 18 18 16 18 21 21 24 27 28 29 29 28 28 28 30
93 91 83 78 84 88 89 92 92 84 73 64 57 54 52 50 45 40 34 32 34 34 35 36 34 32 35 37 39 40 39 39 41 39 36 35 32 30 29 29 31 32 30 30 30 32 34 34 34 39 44 43 39 37 35 33 34 35 35 36 37 37 41 44 42 44 43 42 46 44 33 21 15 17 18 17 20 22 22 24 27 28 29 28 28 28 29 30
97 96 86 79 84 90 95 99 97 91 83 73 65 61 60 58 55 51 46 41 40 38 37 39 38 34 32 35 37 37 37 39 38 36 35 34 31 29 29 29 32 34 32 31 31 31 34 35 34 35 39 37 34 33 34 33 33 32 32 32 32 32 39 44 43 43 44 45 47 48 38 22 15 18 19 20 23 23 23 26 28 30 30 28 28 29 29 31
99 95 85 82 86 90 95 98 95 93 88 77 68 66 64 61 60 58 53 50 51 50 49 49 47 43 39 37 39 40 40 40 40 37 36 35 33 30 30 30 32 33 34 35 34 31 33 35 35 34 33 33 34 36 40 40 36 34 34 33 32 32 35 39 39 40 45 45 43 48 46 27 15 21 24 24 26 25 25 28 29 30 29 28 29 28 29 31
99 94 89 89 89 91 97 98 92 91 87 76 71 70 67 65 65 62 58 57 56 54 55 53 52 51 50 49 51 52 50 49 49 48 45 45 41 37 35 34 35 38 39 41 40 37 37 40 41 40 37 36 39 42 44 43 39 38 38 37 38 35 33 36 37 37 42 44 44 54 54 31 16 24 28 27 29 29 28 29 30 31 30 29 30 29 30 33
99 97 95 94 92 94 97 93 89 90 88 84 84 81 76 75 73 69 67 66 63 63 61 57 54 54 54 56 57 57 57 57 56 55 54 53 51 46 45 44 45 46 45 43 43 42 44 47 48 50 49 44 42 41 44 45 43 42 42 43 42 38 37 41 43 44 45 41 41 52 49 28 19 26 28 27 29 30 29 30 30 30 31 30 30 31 31 34
100 100 98 96 94 95 93 86 86 91 90 90 92 89 86 86 80 74 75 73 70 71 68 62 61 59 57 59 59 57 58 57 56 57 56 55 53 50 51 52 52 51 47 43 41 42 46 48 47 51 54 50 42 37 40 45 44 44 46 45 42 40 41 43 45 48 48 43 45 48 39 25 21 25 25 26 29 29 29 30 31 31 32 32 32 32 34 36
99 99 100 99 97 96 91 85 87 90 88 91 94 90 87 86 79 74 78 78 74 73 72 70 68 63 59 59 58 55 55 54 56 58 55 53 54 53 54 56 55 54 50 43 41 45 51 49 44 44 47 45 39 33 37 45 47 46 45 43 41 41 41 44 47 46 45 49 52 43 33 31 29 26 24 24 28 30 29 31 34 34 33 33 33 35 37 38
98 96 97 98 98 97 92 86 86 86 83 89 93 87 84 84 80 78 78 76 75 75 76 74 69 65 61 59 58 55 53 57 61 58 51 50 55 59 59 58 59 59 54 47 43 47 54 52 45 43 44 44 41 36 40 47 45 42 43 41 40 42 43 46 46 40 42 55 54 38 34 41 38 28 24 23 26 31 31 32 35 35 35 36 37 38 40 41
98 94 92 92 96 100 96 86 84 87 87 89 89 85 86 88 86 82 77 75 76 76 75 74 70 66 62 61 62 61 56 60 62 56 49 51 58 63 63 63 65 64 60 57 53 53 57 55 49 47 48 46 43 41 44 47 42 40 44 43 39 41 45 46 42 38 42 50 46 35 36 43 39 29 24 24 28 33 34 34 35 37 38 39 40 40 42 44
97 97 94 92 93 96 95 89 89 96 96 92 89 86 85 85 81 78 78 81 82 76 74 74 67 62 63 64 66 64 59 58 58 54 54 58 63 67 66 66 69 67 66 68 67 64 62 59 54 53 54 52 49 47 48 51 49 45 46 45 40 40 44 45 43 40 43 46 44 42 45 45 37 28 27 29 32 35 36 36 37 40 40 41 43 43 44 47
89 94 94 95 96 96 95 93 95 100 99 96 96 90 83 80 78 76 80 83 82 78 76 73 64 62 67 70 70 67 61 58 59 61 63 67 70 71 70 69 70 71 71 71 73 72 67 63 61 60 64 63 56 52 55 59 59 56 53 49 43 42 46 47 46 45 47 49 50 52 56 50 33 27 34 37 35 36 41 40 40 40 41 44 45 45 47 50
80 85 87 93 98 95 93 94 95 99 100 99 98 91 85 83 78 76 80 81 79 80 81 76 71 72 76 77 76 72 65 65 70 71 72 74 74 73 73 71 73 77 77 74 75 76 74 73 70 71 79 75 61 61 68 68 70 73 65 51 44 46 50 48 46 49 52 53 53 56 57 47 33 34 42 42 39 42 43 42 42 41 42 47 48 47 49 52
80 83 84 89 94 91 89 92 95 98 97 91 88 85 84 83 80 82 88 85 78 79 81 80 80 84 87 84 78 72 70 75 78 77 76 76 74 72 73 73 75 79 81 79 79 80 80 81 80 83 90 83 69 71 78 80 85 82 63 49 47 49 49 45 47 52 54 53 54 53 48 40 37 42 46 45 44 46 46 44 44 44 45 49 49 49 51 54